Weather in Verkhov'e

Russia / Kaluga Oblast     55°04′33″N   36°40′49″E
temp.,
°C
wind,
m/s
gust,
m/s
humid.,
%
clouds,
%
prec.,
mm/h
press.,
hPa
HPBL,
m
4 december, sat
sat400:000wsw41188100 0.1 1001743
03:00−2wsw513865 0.1 1002642
06:00−4wsw5138990 0.0 1003794
09:00−3wsw5128798 0.2 10051166
12:00−3w5107979 0.1 1007923
15:00−3w5118397 0.1 1009882
18:00−4wsw4108691 0.0 1011663
21:00−4wsw399591 0.1 1012373
5 december, sun
sun500:00−3sw2690100 0.1 1013455
03:00−2ssw2688100 0.1 1013340
06:00−3ssw3790100 0.0 1013312
09:00−2ssw3888100 0.0 1014332
12:00−1ssw3885100 0.0 1015429
15:00−1ssw268764 0.0 1015327
18:00−4s27965 0.0 1016147
21:00−5s269731 0.0 1017124
6 december, mon
mon600:00−6sse119797 0.0 101829
03:00−5se1496100 0.0 101883
06:00−5se1396100 0.0 101874
09:00−5ese259399 0.0 1019111
12:00−2se267797 0.0 1019280
15:00−2ese2681100 0.0 1019278
18:00−3ese398391 0.0 1019339
21:00−3ese31084100 0.0 1018359
7 december, tue
tue700:00−3ese3988100 0.0 1018338
03:00−3ese41094100 0.1 1016408
06:00−2ese51396100 1.5 1013537
09:00−1se41397100 4.3 1011704
12:00+1se31096100 0.9 1009497
15:00+1sse2899100 1.3 1008321
18:00+2ssw2899100 0.1 1009303
21:00+1ssw25100100 0.1 1009207
8 december, wed
wed800:00+1w1499100 0.1 1011189
03:00−1nw3694100 0.1 1013333
06:00−4nnw3794100 0.0 1014293
09:00−6nnw3792100 0.0 1016289
12:00−6n3685100 0.0 1017343
15:00−6n3784100 0.0 1018390
18:00−7n41086100 0.0 1019387
21:00−8nne4108798 0.0 1020380